• In Hungary
  • List of Countries
  • For 7 days
  • Water Temperature
  • Satellite Maps
  • Weather Map
  • News
  • Weather Widgets
  • user-avatar
    Login

    Hourly Weather Haskovo

    Today, 17 October, Tuesday

    Time Temperature Precipitation Wind Pressure Humidity
    00:00 +16°C° 0 mm 1 mps 750 mmHg 68%
    01:00 +15°C° 0 mm 0 mps 750 mmHg 70%
    02:00 +14°C° 0 mm 0 mps 750 mmHg 72%
    03:00 +14°C° 0 mm 0 mps 750 mmHg 72%
    04:00 +14°C° 0 mm 0 mps 750 mmHg 73%
    05:00 +14°C° 0 mm 1 mps 750 mmHg 74%
    06:00 +15°C° 0 mm 1 mps 750 mmHg 71%
    07:00 +16°C° 0 mm 1 mps 750 mmHg 68%
    08:00 +18°C° 0 mm 1 mps 750 mmHg 62%
    09:00 +20°C° 0 mm 1 mps 750 mmHg 56%
    10:00 +22°C° 0 mm 1 mps 750 mmHg 50%
    11:00 +24°C° 0 mm 1 mps 750 mmHg 43%
    12:00 +25°C° 0 mm 1 mps 749 mmHg 40%
    13:00 +25°C° 0 mm 1 mps 749 mmHg 37%
    14:00 +26°C° 0 mm 1 mps 749 mmHg 34%
    15:00 +25°C° 0 mm 1 mps 749 mmHg 37%
    16:00 +24°C° 0 mm 1 mps 748 mmHg 40%
    17:00 +24°C° 0 mm 1 mps 748 mmHg 43%
    18:00 +22°C° 0 mm 1 mps 748 mmHg 46%
    19:00 +21°C° 0 mm 1 mps 748 mmHg 49%
    20:00 +20°C° 0 mm 1 mps 748 mmHg 51%
    21:00 +19°C° 0 mm 1 mps 748 mmHg 52%
    22:00 +19°C° 0 mm 1 mps 747 mmHg 52%
    23:00 +19°C° 0 mm 1 mps 747 mmHg 53%

    Tomorrow, 18 October, Wednesday

    Time Temperature Precipitation Wind Pressure Humidity
    00:00 +18°C° 0 mm 1 mps 747 mmHg 53%
    01:00 +18°C° 0 mm 1 mps 747 mmHg 54%
    02:00 +16°C° 0 mm 1 mps 747 mmHg 54%
    03:00 +16°C° 0 mm 1 mps 747 mmHg 55%
    04:00 +16°C° 0 mm 1 mps 746 mmHg 55%
    05:00 +16°C° 0 mm 1 mps 746 mmHg 56%
    06:00 +16°C° 0 mm 1 mps 746 mmHg 55%
    07:00 +18°C° 0 mm 1 mps 746 mmHg 54%
    08:00 +19°C° 0 mm 1 mps 746 mmHg 53%
    09:00 +21°C° 0 mm 1 mps 746 mmHg 47%
    10:00 +22°C° 0 mm 1 mps 746 mmHg 42%
    11:00 +24°C° 0 mm 1 mps 746 mmHg 36%
    12:00 +25°C° 0 mm 1 mps 746 mmHg 34%
    13:00 +26°C° 0 mm 1 mps 745 mmHg 32%
    14:00 +27°C° 0 mm 2 mps 745 mmHg 29%
    15:00 +25°C° 0 mm 1 mps 745 mmHg 33%
    16:00 +24°C° 0 mm 1 mps 744 mmHg 36%
    17:00 +23°C° 0 mm 1 mps 744 mmHg 39%
    18:00 +22°C° 0 mm 1 mps 744 mmHg 41%
    19:00 +21°C° 0 mm 1 mps 744 mmHg 43%
    20:00 +20°C° 0 mm 1 mps 744 mmHg 44%
    21:00 +19°C° 0 mm 1 mps 744 mmHg 46%
    22:00 +19°C° 0 mm 1 mps 744 mmHg 47%
    23:00 +18°C° 0 mm 1 mps 744 mmHg 48%

    Day after tomorrow, 19 October, Thursday

    Time Temperature Precipitation Wind Pressure Humidity
    00:00 +18°C° 0 mm 1 mps 744 mmHg 50%
    01:00 +16°C° 0 mm 1 mps 743 mmHg 51%
    02:00 +15°C° 0 mm 0 mps 743 mmHg 52%
    03:00 +15°C° 0 mm 1 mps 743 mmHg 53%
    04:00 +15°C° 0 mm 1 mps 743 mmHg 54%
    05:00 +15°C° 0 mm 1 mps 743 mmHg 55%
    06:00 +15°C° 0 mm 0 mps 743 mmHg 54%
    07:00 +15°C° 0 mm 0 mps 743 mmHg 53%
    08:00 +16°C° 0 mm 0 mps 743 mmHg 52%
    09:00 +20°C° 0 mm 1 mps 743 mmHg 47%
    10:00 +22°C° 0 mm 1 mps 743 mmHg 41%
    11:00 +24°C° 0 mm 1 mps 743 mmHg 35%
    12:00 +25°C° 0 mm 1 mps 743 mmHg 33%
    13:00 +25°C° 0 mm 1 mps 742 mmHg 31%
    14:00 +26°C° 0 mm 2 mps 742 mmHg 29%
    15:00 +25°C° 0 mm 2 mps 742 mmHg 32%
    16:00 +24°C° 0 mm 2 mps 742 mmHg 35%
    17:00 +23°C° 0 mm 1 mps 741 mmHg 38%
    18:00 +22°C° 0 mm 1 mps 742 mmHg 41%
    19:00 +21°C° 0 mm 1 mps 742 mmHg 43%
    20:00 +19°C° 0 mm 1 mps 742 mmHg 46%
    21:00 +19°C° 0 mm 1 mps 742 mmHg 47%
    22:00 +19°C° 0 mm 1 mps 742 mmHg 48%
    23:00 +18°C° 0 mm 1 mps 742 mmHg 49%

    20 October, Friday

    Time Temperature Precipitation Wind Pressure Humidity
    00:00 +18°C° 0 mm 1 mps 742 mmHg 50%
    01:00 +16°C° 0 mm 1 mps 742 mmHg 51%
    02:00 +16°C° 0 mm 1 mps 742 mmHg 52%
    03:00 +16°C° 0 mm 1 mps 742 mmHg 53%
    04:00 +15°C° 0 mm 1 mps 741 mmHg 54%
    05:00 +15°C° 0 mm 1 mps 741 mmHg 55%
    06:00 +16°C° 0 mm 1 mps 742 mmHg 54%
    07:00 +18°C° 0 mm 1 mps 742 mmHg 53%
    08:00 +18°C° 0 mm 1 mps 742 mmHg 53%
    09:00 +20°C° 0 mm 1 mps 742 mmHg 47%
    10:00 +22°C° 0 mm 1 mps 742 mmHg 42%
    11:00 +24°C° 0 mm 1 mps 742 mmHg 36%
    12:00 +25°C° 0 mm 1 mps 742 mmHg 35%
    13:00 +26°C° 0 mm 1 mps 742 mmHg 33%
    14:00 +26°C° 0 mm 1 mps 742 mmHg 31%
    15:00 +25°C° 0 mm 1 mps 742 mmHg 34%
    16:00 +24°C° 0 mm 1 mps 742 mmHg 37%
    17:00 +23°C° 0 mm 1 mps 741 mmHg 40%
    18:00 +22°C° 0 mm 1 mps 742 mmHg 43%
    19:00 +21°C° 0 mm 1 mps 742 mmHg 45%
    20:00 +20°C° 0 mm 1 mps 742 mmHg 48%
    21:00 +19°C° 0 mm 1 mps 742 mmHg 49%
    22:00 +19°C° 0 mm 1 mps 743 mmHg 51%
    23:00 +19°C° 0 mm 1 mps 743 mmHg 52%

    21 October, Saturday

    Time Temperature Precipitation Wind Pressure Humidity
    00:00 +18°C° 0 mm 1 mps 743 mmHg 53%
    01:00 +18°C° 0 mm 1 mps 743 mmHg 54%
    02:00 +16°C° 0 mm 1 mps 743 mmHg 55%
    03:00 +16°C° 0 mm 1 mps 743 mmHg 56%
    04:00 +16°C° 0 mm 1 mps 743 mmHg 57%
    05:00 +16°C° 0 mm 1 mps 743 mmHg 57%
    06:00 +16°C° 0 mm 1 mps 743 mmHg 56%
    07:00 +18°C° 0 mm 1 mps 743 mmHg 55%
    08:00 +18°C° 0 mm 1 mps 743 mmHg 53%
    09:00 +20°C° 0 mm 1 mps 743 mmHg 48%
    10:00 +22°C° 0 mm 1 mps 743 mmHg 42%
    11:00 +24°C° 0 mm 2 mps 744 mmHg 36%
    12:00 +24°C° 0 mm 2 mps 743 mmHg 35%
    13:00 +25°C° 0 mm 1 mps 743 mmHg 34%
    14:00 +26°C° 0 mm 1 mps 743 mmHg 33%
    15:00 +25°C° 0 mm 1 mps 742 mmHg 36%
    16:00 +24°C° 0 mm 1 mps 742 mmHg 40%
    17:00 +23°C° 0 mm 1 mps 742 mmHg 43%
    18:00 +22°C° 0 mm 1 mps 743 mmHg 45%
    19:00 +21°C° 0 mm 1 mps 743 mmHg 47%
    20:00 +20°C° 0 mm 1 mps 743 mmHg 50%
    21:00 +19°C° 0 mm 1 mps 743 mmHg 52%
    22:00 +19°C° 0 mm 1 mps 743 mmHg 54%
    23:00 +18°C° 0 mm 1 mps 743 mmHg 56%

    22 October, Sunday

    Time Temperature Precipitation Wind Pressure Humidity
    00:00 +18°C° 0 mm 1 mps 743 mmHg 57%
    01:00 +16°C° 0 mm 1 mps 743 mmHg 59%
    02:00 +16°C° 0 mm 1 mps 743 mmHg 61%
    03:00 +15°C° 0 mm 1 mps 743 mmHg 62%
    04:00 +15°C° 0 mm 1 mps 743 mmHg 64%
    05:00 +15°C° 0 mm 1 mps 743 mmHg 66%
    06:00 +15°C° 0 mm 1 mps 743 mmHg 65%
    07:00 +16°C° 0 mm 1 mps 743 mmHg 64%
    08:00 +16°C° 0 mm 1 mps 743 mmHg 63%
    09:00 +19°C° 0 mm 1 mps 744 mmHg 58%
    10:00 +20°C° 0 mm 1 mps 744 mmHg 53%
    11:00 +21°C° 0 mm 2 mps 744 mmHg 49%
    12:00 +21°C° 0 mm 2 mps 744 mmHg 47%
    13:00 +23°C° 0 mm 2 mps 743 mmHg 45%
    14:00 +23°C° 0 mm 2 mps 743 mmHg 44%
    15:00 +23°C° 0 mm 2 mps 743 mmHg 47%
    16:00 +21°C° 0 mm 2 mps 743 mmHg 50%
    17:00 +20°C° 0 mm 2 mps 743 mmHg 53%
    18:00 +19°C° 0 mm 2 mps 743 mmHg 59%
    19:00 +18°C° 0 mm 2 mps 743 mmHg 64%
    20:00 +17°C° 0 mm 2 mps 743 mmHg 70%
    21:00 +16°C° 0 mm 2 mps 743 mmHg 75%
    22:00 +15°C° 0 mm 2 mps 743 mmHg 80%
    23:00 +15°C° 0 mm 1 mps 743 mmHg 85%
    Show more